Time,TemperatureF,DewpointF,PressureIn,WindDirection,WindDirectionDegrees,WindSpeedMPH,WindSpeedGustMPH,Humidity,HourlyPrecipIn,Conditions,Clouds,dailyrainin,SoftwareType,DateUTC
2013-06-01 00:03:00,82.0,60.0,30.00,WSW,243,2.0,6.0,48,0.00,,,0.00,,2013-06-01 04:03:00,
2013-06-01 00:12:00,81.0,60.0,30.00,SW,226,3.0,3.0,49,0.00,,,0.00,,2013-06-01 04:12:00,
2013-06-01 00:23:00,81.0,60.0,30.00,SW,226,3.0,3.0,49,0.00,,,0.00,,2013-06-01 04:23:00,
2013-06-01 00:33:00,81.0,61.0,30.00,SSW,207,3.0,5.0,50,0.00,,,0.00,,2013-06-01 04:33:00,
2013-06-01 00:42:00,80.0,60.0,30.00,SW,233,2.0,5.0,51,0.00,,,0.00,,2013-06-01 04:42:00,
2013-06-01 00:53:00,80.0,60.0,30.00,SW,233,2.0,5.0,51,0.00,,,0.00,,2013-06-01 04:53:00,
2013-06-01 01:02:00,80.0,62.0,30.00,SW,220,3.0,4.0,55,0.00,,,0.00,,2013-06-01 05:02:00,
2013-06-01 01:12:00,80.0,62.0,30.00,SW,220,3.0,4.0,55,0.00,,,0.00,,2013-06-01 05:12:00,
2013-06-01 01:22:00,80.0,62.0,30.00,SW,229,0.0,5.0,54,0.00,,,0.00,,2013-06-01 05:22:00,
2013-06-01 01:32:00,79.0,62.0,29.99,WSW,243,0.0,5.0,56,0.00,,,0.00,,2013-06-01 05:32:00,
2013-06-01 01:42:00,79.0,62.0,29.99,WSW,251,2.0,4.0,57,0.00,,,0.00,,2013-06-01 05:42:00,
2013-06-01 01:52:00,79.0,62.0,29.99,WSW,251,2.0,4.0,57,0.00,,,0.00,,2013-06-01 05:52:00,
2013-06-01 02:01:00,78.0,62.0,29.99,SW,224,7.0,10.0,59,0.00,,,0.00,,2013-06-01 06:01:00,
2013-06-01 02:12:00,78.0,63.0,29.99,SW,236,3.0,9.0,60,0.00,,,0.00,,2013-06-01 06:12:00,
2013-06-01 02:22:00,78.0,63.0,29.99,SW,236,3.0,9.0,60,0.00,,,0.00,,2013-06-01 06:22:00,
2013-06-01 02:32:00,78.0,64.0,29.99,SW,222,3.0,5.0,62,0.00,,,0.00,,2013-06-01 06:32:00,
2013-06-01 02:42:00,78.0,64.0,29.99,SW,222,3.0,5.0,62,0.00,,,0.00,,2013-06-01 06:42:00,
2013-06-01 02:52:00,78.0,64.0,29.99,SW,222,3.0,5.0,62,0.00,,,0.00,,2013-06-01 06:52:00,
2013-06-01 03:01:00,77.0,64.0,29.99,WSW,243,2.0,10.0,64,0.00,,,0.00,,2013-06-01 07:01:00,
2013-06-01 03:11:00,77.0,64.0,29.99,WSW,243,2.0,10.0,64,0.00,,,0.00,,2013-06-01 07:11:00,
2013-06-01 03:22:00,77.0,64.0,29.99,WSW,243,2.0,10.0,64,0.00,,,0.00,,2013-06-01 07:22:00,
2013-06-01 03:32:00,76.0,64.0,29.98,SSW,203,4.0,5.0,67,0.00,,,0.00,,2013-06-01 07:32:00,
2013-06-01 03:42:00,76.0,65.0,29.98,SW,222,4.0,8.0,68,0.00,,,0.00,,2013-06-01 07:42:00,
2013-06-01 03:52:00,76.0,65.0,29.98,SW,222,4.0,8.0,68,0.00,,,0.00,,2013-06-01 07:52:00,
2013-06-01 04:02:00,75.0,65.0,29.98,WSW,245,2.0,4.0,70,0.00,,,0.00,,2013-06-01 08:02:00,
2013-06-01 04:11:00,75.0,65.0,29.98,WSW,245,2.0,4.0,70,0.00,,,0.00,,2013-06-01 08:11:00,
2013-06-01 04:21:00,75.0,65.0,29.98,WSW,245,2.0,4.0,70,0.00,,,0.00,,2013-06-01 08:21:00,
2013-06-01 04:32:00,75.0,65.0,29.98,WSW,245,2.0,4.0,70,0.00,,,0.00,,2013-06-01 08:32:00,
2013-06-01 04:42:00,75.0,65.0,29.98,SW,219,3.0,4.0,72,0.00,,,0.00,,2013-06-01 08:42:00,
2013-06-01 04:52:00,75.0,65.0,29.98,SW,219,3.0,4.0,72,0.00,,,0.00,,2013-06-01 08:52:00,
2013-06-01 05:02:00,74.0,65.0,29.98,SW,214,3.0,5.0,73,0.00,,,0.00,,2013-06-01 09:02:00,
2013-06-01 05:12:00,74.0,65.0,29.98,SW,214,3.0,5.0,73,0.00,,,0.00,,2013-06-01 09:12:00,
2013-06-01 05:21:00,74.0,65.0,29.98,SW,214,3.0,5.0,73,0.00,,,0.00,,2013-06-01 09:21:00,
2013-06-01 05:33:00,74.0,66.0,29.98,SSW,193,2.0,6.0,75,0.00,,,0.00,,2013-06-01 09:33:00,
2013-06-01 05:42:00,74.0,66.0,29.98,SSW,193,2.0,6.0,75,0.00,,,0.00,,2013-06-01 09:42:00,
2013-06-01 05:53:00,73.0,65.0,29.98,SSW,202,3.0,5.0,77,0.00,,,0.00,,2013-06-01 09:53:00,
2013-06-01 06:02:00,73.0,65.0,29.98,SW,215,0.0,3.0,77,0.00,,,0.00,,2013-06-01 10:02:00,
2013-06-01 06:13:00,73.0,65.0,29.98,SW,215,0.0,3.0,77,0.00,,,0.00,,2013-06-01 10:13:00,
2013-06-01 06:22:00,73.0,66.0,29.98,SSW,207,0.0,3.0,78,0.00,,,0.00,,2013-06-01 10:22:00,
2013-06-01 06:33:00,73.0,66.0,29.98,SW,233,2.0,6.0,78,0.00,,,0.00,,2013-06-01 10:33:00,
2013-06-01 06:42:00,73.0,66.0,29.98,SW,229,5.0,6.0,78,0.00,,,0.00,,2013-06-01 10:42:00,
2013-06-01 06:52:00,73.0,66.0,29.98,SW,229,5.0,6.0,78,0.00,,,0.00,,2013-06-01 10:52:00,
2013-06-01 07:03:00,74.0,66.0,29.98,South,179,6.0,8.0,77,0.00,,,0.00,,2013-06-01 11:03:00,
2013-06-01 07:11:00,74.0,66.0,29.98,South,179,6.0,8.0,77,0.00,,,0.00,,2013-06-01 11:11:00,
2013-06-01 07:21:00,74.0,66.0,29.98,South,179,6.0,8.0,77,0.00,,,0.00,,2013-06-01 11:21:00,
2013-06-01 07:33:00,74.0,66.0,29.98,SW,226,1.0,5.0,77,0.00,,,0.00,,2013-06-01 11:33:00,
2013-06-01 07:42:00,75.0,67.0,29.98,SW,225,5.0,11.0,75,0.00,,,0.00,,2013-06-01 11:42:00,
2013-06-01 07:52:00,75.0,67.0,29.98,SW,225,5.0,11.0,75,0.00,,,0.00,,2013-06-01 11:52:00,
2013-06-01 08:01:00,75.0,66.0,29.99,SSW,203,3.0,9.0,74,0.00,,,0.00,,2013-06-01 12:01:00,
2013-06-01 08:12:00,75.0,66.0,29.99,SSW,203,3.0,9.0,74,0.00,,,0.00,,2013-06-01 12:12:00,
2013-06-01 08:22:00,76.0,66.0,29.99,SW,227,2.0,6.0,72,0.00,,,0.00,,2013-06-01 12:22:00,
2013-06-01 08:32:00,77.0,66.0,29.99,SW,223,1.0,8.0,70,0.00,,,0.00,,2013-06-01 12:32:00,
2013-06-01 08:42:00,77.0,66.0,29.99,SW,223,1.0,8.0,70,0.00,,,0.00,,2013-06-01 12:42:00,
2013-06-01 08:52:00,77.0,66.0,29.99,SW,223,1.0,8.0,70,0.00,,,0.00,,2013-06-01 12:52:00,
2013-06-01 09:01:00,78.0,65.0,29.99,SSW,210,0.0,6.0,65,0.00,,,0.00,,2013-06-01 13:01:00,
2013-06-01 09:11:00,78.0,65.0,29.99,SSW,210,0.0,6.0,65,0.00,,,0.00,,2013-06-01 13:11:00,
2013-06-01 09:22:00,79.0,66.0,29.99,SW,219,4.0,6.0,65,0.00,,,0.00,,2013-06-01 13:22:00,
2013-06-01 09:32:00,79.0,66.0,29.99,SW,219,4.0,6.0,65,0.00,,,0.00,,2013-06-01 13:32:00,
2013-06-01 09:42:00,79.0,66.0,29.99,SW,219,4.0,6.0,65,0.00,,,0.00,,2013-06-01 13:42:00,
2013-06-01 09:52:00,79.0,66.0,29.99,SW,219,4.0,6.0,65,0.00,,,0.00,,2013-06-01 13:52:00,
2013-06-01 10:02:00,83.0,66.0,29.97,WSW,256,2.0,9.0,57,0.00,,,0.00,,2013-06-01 14:02:00,
2013-06-01 10:11:00,83.0,66.0,29.97,WSW,256,2.0,9.0,57,0.00,,,0.00,,2013-06-01 14:11:00,
2013-06-01 10:21:00,84.0,66.0,29.97,SSW,202,2.0,4.0,55,0.00,,,0.00,,2013-06-01 14:21:00,
2013-06-01 10:32:00,84.0,66.0,29.97,SW,225,3.0,9.0,54,0.00,,,0.00,,2013-06-01 14:32:00,
2013-06-01 10:42:00,84.0,66.0,29.97,SW,225,3.0,9.0,54,0.00,,,0.00,,2013-06-01 14:42:00,
2013-06-01 10:52:00,84.0,66.0,29.97,SW,225,3.0,9.0,54,0.00,,,0.00,,2013-06-01 14:52:00,
2013-06-01 11:02:00,86.0,66.0,29.96,SW,226,4.0,8.0,52,0.00,,,0.00,,2013-06-01 15:02:00,
2013-06-01 11:11:00,86.0,66.0,29.96,SW,226,4.0,8.0,52,0.00,,,0.00,,2013-06-01 15:11:00,
2013-06-01 11:22:00,87.0,66.0,29.96,South,188,2.0,8.0,50,0.00,,,0.00,,2013-06-01 15:22:00,
2013-06-01 11:33:00,88.0,66.0,29.96,South,189,3.0,10.0,49,0.00,,,0.00,,2013-06-01 15:33:00,
2013-06-01 11:43:00,88.0,66.0,29.96,South,189,3.0,10.0,49,0.00,,,0.00,,2013-06-01 15:43:00,
2013-06-01 11:53:00,87.0,65.0,29.96,WSW,240,3.0,10.0,48,0.00,,,0.00,,2013-06-01 15:53:00,
2013-06-01 12:03:00,89.0,65.0,29.96,SW,226,7.0,10.0,45,0.00,,,0.00,,2013-06-01 16:03:00,
2013-06-01 12:12:00,89.0,65.0,29.96,SW,226,7.0,10.0,45,0.00,,,0.00,,2013-06-01 16:12:00,
2013-06-01 12:23:00,89.0,65.0,29.96,SW,224,5.0,11.0,45,0.00,,,0.00,,2013-06-01 16:23:00,
2013-06-01 12:33:00,89.0,64.0,29.96,SSW,206,2.0,11.0,43,0.00,,,0.00,,2013-06-01 16:33:00,
2013-06-01 12:42:00,90.0,65.0,29.95,SSW,213,4.0,10.0,44,0.00,,,0.00,,2013-06-01 16:42:00,
2013-06-01 12:52:00,90.0,65.0,29.95,SSW,213,4.0,10.0,44,0.00,,,0.00,,2013-06-01 16:52:00,
2013-06-01 13:02:00,91.0,65.0,29.95,WSW,252,4.0,13.0,43,0.00,,,0.00,,2013-06-01 17:02:00,
2013-06-01 13:12:00,91.0,65.0,29.95,WSW,252,4.0,13.0,43,0.00,,,0.00,,2013-06-01 17:12:00,
2013-06-01 13:22:00,91.0,65.0,29.95,WSW,252,4.0,13.0,43,0.00,,,0.00,,2013-06-01 17:22:00,
2013-06-01 13:32:00,91.0,65.0,29.95,WSW,252,4.0,13.0,43,0.00,,,0.00,,2013-06-01 17:32:00,
2013-06-01 13:42:00,91.0,65.0,29.95,WSW,252,4.0,13.0,43,0.00,,,0.00,,2013-06-01 17:42:00,
2013-06-01 14:02:00,91.0,65.0,29.94,South,169,17.0,17.0,42,0.00,,,0.00,,2013-06-01 18:02:00,
2013-06-01 14:12:00,91.0,65.0,29.94,South,169,17.0,17.0,42,0.00,,,0.00,,2013-06-01 18:12:00,
2013-06-01 14:22:00,90.0,64.0,29.93,SW,220,6.0,11.0,42,0.00,,,0.00,,2013-06-01 18:22:00,
2013-06-01 14:32:00,92.0,63.0,29.93,South,184,5.0,12.0,39,0.00,,,0.00,,2013-06-01 18:32:00,
2013-06-01 14:42:00,92.0,63.0,29.93,South,184,5.0,12.0,39,0.00,,,0.00,,2013-06-01 18:42:00,
2013-06-01 14:52:00,92.0,63.0,29.93,South,184,5.0,12.0,39,0.00,,,0.00,,2013-06-01 18:52:00,
2013-06-01 15:02:00,93.0,64.0,29.91,South,191,4.0,8.0,39,0.00,,,0.00,,2013-06-01 19:02:00,
2013-06-01 15:11:00,93.0,64.0,29.91,South,191,4.0,8.0,39,0.00,,,0.00,,2013-06-01 19:11:00,
2013-06-01 15:21:00,93.0,64.0,29.91,South,191,4.0,8.0,39,0.00,,,0.00,,2013-06-01 19:21:00,
2013-06-01 15:32:00,93.0,63.0,29.90,WSW,244,4.0,10.0,37,0.00,,,0.00,,2013-06-01 19:32:00,
2013-06-01 15:42:00,93.0,63.0,29.90,WSW,244,4.0,10.0,37,0.00,,,0.00,,2013-06-01 19:42:00,
2013-06-01 15:53:00,93.0,63.0,29.90,WSW,244,4.0,10.0,37,0.00,,,0.00,,2013-06-01 19:53:00,
2013-06-01 16:02:00,93.0,63.0,29.90,South,189,6.0,14.0,37,0.00,,,0.00,,2013-06-01 20:02:00,
2013-06-01 16:12:00,93.0,63.0,29.90,South,189,6.0,14.0,37,0.00,,,0.00,,2013-06-01 20:12:00,
2013-06-01 16:22:00,93.0,63.0,29.90,SSW,201,13.0,13.0,37,0.00,,,0.00,,2013-06-01 20:22:00,
2013-06-01 16:32:00,92.0,61.0,29.91,West,262,9.0,11.0,36,0.00,,,0.00,,2013-06-01 20:32:00,
2013-06-01 16:42:00,92.0,61.0,29.91,West,262,9.0,11.0,36,0.00,,,0.00,,2013-06-01 20:42:00,
2013-06-01 16:52:00,92.0,61.0,29.91,West,262,9.0,11.0,36,0.00,,,0.00,,2013-06-01 20:52:00,
2013-06-01 17:01:00,92.0,61.0,29.91,West,262,9.0,11.0,36,0.00,,,0.00,,2013-06-01 21:01:00,
2013-06-01 17:12:00,92.0,61.0,29.90,South,177,4.0,11.0,36,0.00,,,0.00,,2013-06-01 21:12:00,
2013-06-01 17:22:00,92.0,61.0,29.90,South,177,4.0,11.0,36,0.00,,,0.00,,2013-06-01 21:22:00,
2013-06-01 17:33:00,92.0,60.0,29.89,WSW,253,5.0,17.0,34,0.00,,,0.00,,2013-06-01 21:33:00,
2013-06-01 17:43:00,92.0,60.0,29.89,WSW,253,5.0,17.0,34,0.00,,,0.00,,2013-06-01 21:43:00,
2013-06-01 17:53:00,91.0,59.0,29.89,SW,229,3.0,12.0,35,0.00,,,0.00,,2013-06-01 21:53:00,
2013-06-01 18:03:00,91.0,60.0,29.89,NW,314,6.0,9.0,36,0.00,,,0.00,,2013-06-01 22:03:00,
2013-06-01 18:12:00,91.0,60.0,29.89,NW,314,6.0,9.0,36,0.00,,,0.00,,2013-06-01 22:12:00,
2013-06-01 18:23:00,91.0,60.0,29.89,NW,314,6.0,9.0,36,0.00,,,0.00,,2013-06-01 22:23:00,
2013-06-01 18:33:00,90.0,59.0,29.88,WSW,245,3.0,7.0,36,0.00,,,0.00,,2013-06-01 22:33:00,
2013-06-01 18:42:00,90.0,59.0,29.88,WSW,245,3.0,7.0,36,0.00,,,0.00,,2013-06-01 22:42:00,
2013-06-01 18:53:00,90.0,59.0,29.88,WSW,245,3.0,7.0,36,0.00,,,0.00,,2013-06-01 22:53:00,
2013-06-01 19:02:00,90.0,61.0,29.88,SSW,201,4.0,14.0,38,0.00,,,0.00,,2013-06-01 23:02:00,
2013-06-01 19:12:00,90.0,61.0,29.88,SSW,201,4.0,14.0,38,0.00,,,0.00,,2013-06-01 23:12:00,
2013-06-01 19:22:00,90.0,61.0,29.88,SSW,201,4.0,14.0,38,0.00,,,0.00,,2013-06-01 23:22:00,
2013-06-01 19:32:00,89.0,59.0,29.88,WSW,251,3.0,13.0,37,0.00,,,0.00,,2013-06-01 23:32:00,
2013-06-01 19:42:00,89.0,59.0,29.88,WSW,251,3.0,13.0,37,0.00,,,0.00,,2013-06-01 23:42:00,
2013-06-01 19:52:00,89.0,60.0,29.88,WSW,252,4.0,8.0,38,0.00,,,0.00,,2013-06-01 23:52:00,
2013-06-01 20:02:00,89.0,61.0,29.88,SW,224,4.0,11.0,39,0.00,,,0.00,,2013-06-02 00:02:00,
2013-06-01 20:11:00,89.0,61.0,29.88,SW,224,4.0,11.0,39,0.00,,,0.00,,2013-06-02 00:11:00,
2013-06-01 20:22:00,89.0,61.0,29.88,SW,224,4.0,11.0,39,0.00,,,0.00,,2013-06-02 00:22:00,
2013-06-01 20:32:00,89.0,61.0,29.88,SW,224,4.0,11.0,39,0.00,,,0.00,,2013-06-02 00:32:00,
2013-06-01 21:02:00,87.0,64.0,29.89,SW,231,3.0,9.0,46,0.00,,,0.00,,2013-06-02 01:02:00,
2013-06-01 21:11:00,87.0,64.0,29.89,SW,231,3.0,9.0,46,0.00,,,0.00,,2013-06-02 01:11:00,
2013-06-01 21:22:00,86.0,65.0,29.89,South,187,9.0,11.0,49,0.00,,,0.00,,2013-06-02 01:22:00,
2013-06-01 21:32:00,85.0,67.0,29.89,South,184,6.0,10.0,55,0.00,,,0.00,,2013-06-02 01:32:00,
2013-06-01 21:42:00,84.0,67.0,29.90,South,174,9.0,11.0,57,0.00,,,0.00,,2013-06-02 01:42:00,
2013-06-01 21:52:00,84.0,67.0,29.90,South,174,9.0,11.0,57,0.00,,,0.00,,2013-06-02 01:52:00,
2013-06-01 22:02:00,84.0,67.0,29.90,South,174,9.0,11.0,57,0.00,,,0.00,,2013-06-02 02:02:00,
2013-06-01 22:12:00,84.0,67.0,29.90,South,174,9.0,11.0,57,0.00,,,0.00,,2013-06-02 02:12:00,
2013-06-01 22:21:00,84.0,67.0,29.90,South,174,9.0,11.0,57,0.00,,,0.00,,2013-06-02 02:21:00,
2013-06-01 23:02:00,81.0,67.0,29.90,SSW,199,3.0,9.0,62,0.00,,,0.00,,2013-06-02 03:02:00,
2013-06-01 23:11:00,81.0,67.0,29.90,SSW,199,3.0,9.0,62,0.00,,,0.00,,2013-06-02 03:11:00,
2013-06-01 23:22:00,82.0,68.0,29.90,SSW,198,4.0,9.0,62,0.00,,,0.00,,2013-06-02 03:22:00,
2013-06-01 23:33:00,82.0,68.0,29.90,SW,232,0.0,7.0,62,0.00,,,0.00,,2013-06-02 03:33:00,
2013-06-01 23:43:00,82.0,68.0,29.90,SW,232,0.0,7.0,62,0.00,,,0.00,,2013-06-02 03:43:00,
2013-06-01 23:53:00,82.0,68.0,29.90,SW,218,5.0,13.0,62,0.00,,,0.00,,2013-06-02 03:53:00,